Flag for U.S.A. Weather past 2 weeks in Albany, New York, U.S.A.

Now
3 °F

Clear.


Feels Like: -4 °F
Forecast: 2 / 22 °F
Wind: 3 mph from Northwest

Location: Albany County Airport

Current Time: Mar 6, 2015 at 6:26:25 AM

Latest Report: Mar 6, 2015 at 5:51 AM


Visibility: 10 mi

Pressure: 30.51 "Hg

Humidity: 66%

Dew point: -6 °F

Location of AlbanyLocation

Historic Weather in Albany — Graph

°F

Albany temperature yesterday

Maximum temperature yesterday: 33 °F (at 12:51 AM)
Minimum temperature yesterday: 11 °F (at 11:51 PM)
Average temperature yesterday: 21 °F

Past Weeks' High & Low Weather Summary

 TemperatureHumidityPressure
High38 °F (Mar 4, 2:51 PM)85% (Feb 22, 3:51 AM)30.82 "Hg (Feb 22, 3:51 AM)
Low-8 °F (Feb 21, 4:51 AM)31% (Feb 24, 4:51 PM)29.66 "Hg (Feb 19, 6:51 AM)
Average17 °F59%30.20 "Hg
* Reported Feb 19 4:51 AM — Mar 6 4:51 AM, Albany, Weather by CustomWeather, © 2015

Note: Actual official high and low records may vary slightly from our data, if they occured in-between our weather recording intervals... More about our weather records

Advertising

Albany weather history for previous 24 hours

 ConditionsComfort  
Time TempWeatherWind HumidityBarometerVisibility
4:51 AM
Fri, Mar 6
2 °FClear.No wind65%30.50 "Hg10 mi
3:51 AM5 °FClear.3 mph63%30.48 "Hg10 mi
2:51 AM7 °FClear.5 mph57%30.47 "Hg10 mi
1:51 AM9 °FClear.8 mph52%30.47 "Hg10 mi
12:51 AM9 °FClear.9 mph52%30.46 "Hg10 mi
11:51 PM
Thu, Mar 5
11 °FClear.12 mph48%30.44 "Hg10 mi
10:51 PM12 °FClear.9 mph48%30.42 "Hg10 mi
9:51 PM14 °FPassing clouds.9 mph47%30.39 "Hg10 mi
8:51 PM16 °FPassing clouds.14 mph45%30.35 "Hg10 mi
7:51 PM18 °FPassing clouds.14 mph43%30.31 "Hg10 mi
6:51 PM18 °FOvercast.18 mph45%30.29 "Hg10 mi
5:51 PM19 °FPartly cloudy.15 mph47%30.24 "Hg10 mi
4:51 PM19 °FBroken clouds.13 mph49%30.20 "Hg10 mi
3:51 PM20 °FMostly cloudy.15 mph50%30.19 "Hg10 mi
2:51 PM20 °FMostly cloudy.16 mph52%30.20 "Hg10 mi
1:51 PM21 °FOvercast.16 mph50%30.18 "Hg10 mi
12:51 PM21 °FMore clouds than sun.16 mph50%30.17 "Hg10 mi
11:51 AM21 °FMostly cloudy.17 mph50%30.19 "Hg10 mi
10:51 AM21 °FMostly cloudy.14 mph50%30.18 "Hg10 mi
9:51 AM21 °FMostly cloudy.13 mph47%30.19 "Hg10 mi
8:51 AM22 °FMostly cloudy.16 mph48%30.15 "Hg10 mi
7:51 AM23 °FMostly cloudy.12 mph44%30.13 "Hg10 mi
6:51 AM24 °FMostly cloudy.15 mph46%30.10 "Hg10 mi
Weather by CustomWeather, © 2015

See weather overviewHow to use our weather pages